Date String (YYYY-MM-DD hh:mm:ss) UTC,Instrument flags,Ambient pressure (hPa),Sample flow (lpm),Bypass flow (lpm),Sample temperature (°C),Ambient temperature (°C),ASC tube jacket temperature (°C),LED temperature (°C),Box temperature (°C),Sample RH (%),Span deviation,Mass concentration (μg/m³),Mass concentration (μg/m³),Mass concentration (μg/m³)
DateTimeUTC,F1_M11,P_M11,Q1_M11,Q2_M11,T1_M11,T2_M11,T3_M11,T4_M11,T5_M11,U1_M11,ZSPAN_M11,X2_M11,X0_M11,X1_M11
2021-10-31 19:00:00,,0830.6,5.00,0.00,26.3,25.5,00.0,35.2,28.1,16.3,0000.0,0004.15,0008.91,0003.61
2021-10-31 19:01:00,,0830.5,4.99,0.00,26.3,25.5,00.0,35.2,28.1,16.3,0000.0,0004.17,0009.14,0003.63
2021-10-31 19:02:00,,0830.5,5.00,0.00,26.3,25.5,00.0,35.2,28.1,16.3,0000.0,0004.17,0010.12,0003.65
2021-10-31 19:03:00,,0830.4,5.01,0.00,26.3,25.5,00.0,35.2,28.1,16.3,0000.0,0004.18,0010.89,0003.69
2021-10-31 19:04:00,,0830.4,5.00,0.00,26.3,25.5,00.0,35.2,28.1,16.3,0000.0,0004.19,0011.09,0003.71
2021-10-31 19:05:00,,0830.4,4.99,0.00,26.3,25.5,00.0,35.2,28.1,16.3,0000.0,0004.20,0011.03,0003.72
2021-10-31 19:06:00,,0830.4,5.01,0.00,26.3,25.5,00.0,35.2,28.1,16.3,0000.0,0004.22,0011.00,0003.74
2021-10-31 19:07:00,,0830.3,5.01,0.00,26.3,25.5,00.0,35.2,28.1,16.3,0000.0,0004.26,0011.33,0003.76
2021-10-31 19:08:00,,0830.3,4.99,0.00,26.3,25.5,00.0,35.2,28.1,16.3,0000.0,0004.27,0010.83,0003.78
2021-10-31 19:09:00,,0830.3,5.00,0.00,26.3,25.5,00.0,35.2,28.1,16.3,0000.0,0004.23,0010.24,0003.79
2021-10-31 19:10:00,,0830.3,5.01,0.00,26.3,25.5,00.0,35.3,28.1,16.3,0000.0,0004.22,0010.18,0003.80
2021-10-31 19:11:00,,0830.3,4.99,0.00,26.3,25.5,00.0,35.3,28.1,16.3,0000.0,0004.23,0010.43,0003.82
2021-10-31 19:12:00,,0830.3,5.01,0.00,26.3,25.5,00.0,35.3,28.1,16.3,0000.0,0004.22,0010.36,0003.83
2021-10-31 19:13:00,,0830.2,4.99,0.00,26.3,25.5,00.0,35.3,28.1,16.3,0000.0,0004.24,0009.46,0003.84
2021-10-31 19:14:00,,0830.2,5.00,0.00,26.3,25.5,00.0,35.3,28.1,16.3,0000.0,0004.26,0008.71,0003.85
2021-10-31 19:15:00,,0830.2,5.00,0.00,26.3,25.5,00.0,35.3,28.1,16.2,0000.0,0004.26,0008.28,0003.84
2021-10-31 19:16:00,,0830.1,5.00,0.00,26.2,25.5,00.0,35.3,28.1,16.3,0000.0,0004.21,0008.21,0003.82
2021-10-31 19:17:00,,0830.2,4.99,0.00,26.2,25.5,00.0,35.3,28.1,16.3,0000.0,0004.20,0007.92,0003.82
2021-10-31 19:18:00,,0830.2,5.01,0.00,26.2,25.5,00.0,35.3,28.1,16.3,0000.0,0004.19,0007.49,0003.81
2021-10-31 19:19:00,,0830.1,4.99,0.00,26.2,25.5,00.0,35.3,28.1,16.3,0000.0,0004.19,0007.55,0003.80
2021-10-31 19:20:00,,0830.1,5.01,0.00,26.2,25.5,00.0,35.3,28.1,16.3,0000.0,0004.21,0008.29,0003.78
2021-10-31 19:21:00,,0830.1,4.99,0.00,26.2,25.5,00.0,35.3,28.1,16.3,0000.0,0004.23,0008.39,0003.77
2021-10-31 19:22:00,,0830.1,5.00,0.00,26.2,25.5,00.0,35.3,28.1,16.3,0000.0,0004.21,0008.03,0003.76
2021-10-31 19:23:00,,0830.1,5.00,0.00,26.2,25.5,00.0,35.3,28.1,16.3,0000.0,0004.19,0007.90,0003.75
2021-10-31 19:24:00,,0830.1,5.00,0.00,26.2,25.5,00.0,35.3,28.1,16.3,0000.0,0004.19,0007.90,0003.76
2021-10-31 19:25:00,,0830.1,5.01,0.00,26.2,25.5,00.0,35.3,28.1,16.2,0000.0,0004.18,0007.80,0003.75
2021-10-31 19:26:00,,0830.1,5.01,0.00,26.2,25.5,00.0,35.3,28.1,16.2,0000.0,0004.16,0007.76,0003.75
2021-10-31 19:27:00,,0830.1,5.00,0.00,26.2,25.4,00.0,35.3,28.1,16.2,0000.0,0004.18,0008.37,0003.74
2021-10-31 19:28:00,,0830.1,5.00,0.00,26.2,25.4,00.0,35.3,28.1,16.2,0000.0,0004.18,0008.40,0003.75
2021-10-31 19:29:00,,0830.1,5.01,0.00,26.2,25.5,00.0,35.3,28.1,16.2,0000.0,0004.20,0008.49,0003.74
2021-10-31 19:30:00,,0830.1,4.99,0.00,26.2,25.5,00.0,35.3,28.1,16.3,0000.0,0004.18,0008.56,0003.74
2021-10-31 19:31:00,,0830.1,4.99,0.00,26.2,25.5,00.0,35.3,28.1,16.3,0000.0,0004.15,0008.06,0003.75
2021-10-31 19:32:00,,0830.1,5.01,0.00,26.3,25.5,00.0,35.3,28.1,16.2,0000.0,0004.17,0008.57,0003.76
2021-10-31 19:33:00,,0830.1,5.01,0.00,26.3,25.5,00.0,35.3,28.1,16.2,0000.0,0004.18,0008.75,0003.76
2021-10-31 19:34:00,,0830.0,4.99,0.00,26.3,25.5,00.0,35.3,28.1,16.3,0000.0,0004.18,0008.86,0003.76
2021-10-31 19:35:00,,0830.0,5.00,0.00,26.3,25.5,00.0,35.3,28.1,16.2,0000.0,0004.21,0008.99,0003.75
2021-10-31 19:36:00,,0829.9,5.00,0.00,26.3,25.5,00.0,35.3,28.1,16.2,0000.0,0004.21,0009.08,0003.75
2021-10-31 19:37:00,,0830.0,4.99,0.00,26.2,25.5,00.0,35.3,28.1,16.2,0000.0,0004.22,0009.13,0003.76
2021-10-31 19:38:00,,0830.1,5.00,0.00,26.2,25.4,00.0,35.3,28.1,16.3,0000.0,0004.27,0008.61,0003.78
2021-10-31 19:39:00,,0830.1,5.00,0.00,26.2,25.4,00.0,35.3,28.1,16.2,0000.0,0004.28,0008.65,0003.78
2021-10-31 19:40:00,,0830.1,5.01,0.00,26.2,25.4,00.0,35.3,28.0,16.2,0000.0,0004.27,0008.65,0003.79
2021-10-31 19:41:00,,0830.0,5.00,0.00,26.2,25.4,00.0,35.3,28.0,16.3,0000.0,0004.28,0008.93,0003.80
2021-10-31 19:42:00,,0830.0,5.00,0.00,26.2,25.4,00.0,35.3,28.0,16.3,0000.0,0004.29,0008.95,0003.81
2021-10-31 19:43:00,,0829.9,5.00,0.00,26.2,25.4,00.0,35.3,28.0,16.3,0000.0,0004.28,0008.44,0003.81
2021-10-31 19:44:00,,0829.9,4.99,0.00,26.2,25.4,00.0,35.2,28.0,16.3,0000.0,0004.28,0008.16,0003.82
2021-10-31 19:45:00,,0829.9,5.00,0.00,26.2,25.4,00.0,35.2,28.0,16.3,0000.0,0004.30,0008.06,0003.83
2021-10-31 19:46:00,,0829.8,5.01,0.00,26.2,25.4,00.0,35.2,28.0,16.3,0000.0,0004.27,0008.52,0003.85
2021-10-31 19:47:00,,0829.9,5.00,0.00,26.2,25.4,00.0,35.2,28.0,16.3,0000.0,0004.27,0008.54,0003.86
2021-10-31 19:48:00,,0829.8,5.00,0.00,26.2,25.4,00.0,35.2,28.0,16.3,0000.0,0004.25,0008.44,0003.86
2021-10-31 19:49:00,,0829.8,4.99,0.00,26.2,25.4,00.0,35.2,28.0,16.3,0000.0,0004.22,0008.63,0003.86
2021-10-31 19:50:00,,0829.8,4.99,0.00,26.2,25.4,00.0,35.2,28.0,16.3,0000.0,0004.22,0009.24,0003.86
2021-10-31 19:51:00,,0829.8,5.00,0.00,26.2,25.3,00.0,35.2,28.0,16.4,0000.0,0004.23,0009.69,0003.86
2021-10-31 19:52:00,,0829.8,5.01,0.00,26.2,25.3,00.0,35.2,28.0,16.4,0000.0,0004.22,0009.48,0003.87
2021-10-31 19:53:00,,0829.9,4.99,0.00,26.2,25.3,00.0,35.2,28.0,16.4,0000.0,0004.26,0010.01,0003.87
2021-10-31 19:54:00,,0829.8,5.01,0.00,26.2,25.4,00.0,35.2,28.0,16.3,0000.0,0004.26,0010.36,0003.87
2021-10-31 19:55:00,,0829.8,4.99,0.00,26.2,25.4,00.0,35.2,28.0,16.3,0000.0,0004.23,0010.34,0003.86
2021-10-31 19:56:00,,0829.8,5.02,0.00,26.2,25.4,00.0,35.2,28.0,16.4,0000.0,0004.21,0010.35,0003.86
2021-10-31 19:57:00,,0829.6,5.00,0.00,26.2,25.4,00.0,35.2,28.0,16.4,0000.0,0004.23,0010.17,0003.87
2021-10-31 19:58:00,,0829.7,5.00,0.00,26.1,25.3,00.0,35.2,27.9,16.4,0000.0,0004.22,0010.07,0003.87
2021-10-31 19:59:00,,0829.7,5.01,0.00,26.1,25.3,00.0,35.2,27.9,16.4,0000.0,0004.23,0010.10,0003.87
